Weather History for Grand Forks AFB, ND

Change the Weather History Date:

Saturday, January 19, 2013

  Actual Average Record
Temperature  
Mean Temperature -11 °C -  
Max Temperature 0 °C -10 °C 1 °C (2014)
Min Temperature -21 °C -17 °C -27 °C (2008)
Degree Days  
Heating Degree Days 52    
Moisture  
Dew Point -18 °C    
Average Humidity 72    
Maximum Humidity 88    
Minimum Humidity 61    
Precipitation  
Precipitation 0.00 mm - - ()
Sea Level Pressure  
Sea Level Pressure 1017 hPa    
Wind  
Wind Speed 27 km/h (NNW)    
Max Wind Speed 52 km/h    
Max Gust Speed 71 km/h    
Visibility 14 kilometers    
Events Snow    
Averages and records for this station are not official NWS values.
T = Trace of Precipitation, MM = Missing Value Source: NWS Daily Summary

Daily Weather History Graph

Daily Weather History Graph

Search for Another Location

Airport:

Trip Planner

Search our weather history database for the weather conditions in past years. The results will help you decide how hot, cold, wet, or windy it might be!

Date:

Astronomy

Jan. 19, 2013 Rise Set
Actual Time 8:11 AM CST 5:10 PM CST
Civil Twilight 7:36 AM CST 5:44 PM CST
Nautical Twilight 6:58 AM CST 6:23 PM CST
Astronomical Twilight 6:21 AM CST 7:00 PM CST
Moon 11:42 AM CST (1/19) 1:40 AM CST (1/19)
Length of Visible Light 10h 08m
Length of Day
8h 59m
First Quarter, 57% of the Moon is Illuminated
Jan 19
First Quarter
Jan 26
Full
Feb 3
Last Quarter
Feb 10
New
Feb 17
First Quarter

Hourly Weather History & Observations

Time (CST) Temp. Windchill Dew Point Humidity Pressure Visibility Wind Dir Wind Speed Gust Speed Precip Events Conditions
12:23 AM -9.0 °C - -11.0 °C 86% 1006.4 hPa 16.1 km Calm Calm - N/A   Scattered Clouds
12:55 AM -9.3 °C - -11.5 °C 84% 1006.2 hPa 16.1 km Calm Calm - N/A   Clear
1:55 AM -9.6 °C -15.1 °C -11.6 °C 86% 1005.0 hPa 16.1 km South 11.1 km/h / 3.1 m/s - N/A   Clear
2:55 AM -9.5 °C -16.1 °C -11.4 °C 86% 1004.7 hPa 16.1 km SSW 14.8 km/h / 4.1 m/s - N/A   Clear
3:55 AM -10.0 °C -15.6 °C -11.7 °C 88% 1004.5 hPa 16.1 km SSW 11.1 km/h / 3.1 m/s - N/A   Clear
4:55 AM 0.4 °C -5.0 °C -3.4 °C 76% 1004.8 hPa 16.1 km NW 22.2 km/h / 6.2 m/s - N/A   Clear
5:51 AM 0.0 °C -5.3 °C -3.0 °C 80% 1005.9 hPa 16.1 km NNW 20.4 km/h / 5.7 m/s - N/A   Mostly Cloudy
6:55 AM -3.3 °C -11.8 °C -6.7 °C 78% 1007.2 hPa 16.1 km NNW 40.7 km/h / 11.3 m/s 48.2 km/h / 13.4 m/s N/A   Overcast
7:37 AM -9.0 °C -18.4 °C -11.0 °C 86% 1009.4 hPa 16.1 km North 31.5 km/h / 8.7 m/s - N/A   Overcast
7:39 AM -9.0 °C -18.1 °C -12.0 °C 79% 1009.5 hPa 16.1 km North 29.6 km/h / 8.2 m/s - N/A   Overcast
7:47 AM -10.0 °C -19.7 °C -13.0 °C 79% 1009.8 hPa 16.1 km North 31.5 km/h / 8.7 m/s 42.6 km/h / 11.8 m/s N/A   Overcast
7:50 AM -10.0 °C -19.2 °C -13.0 °C 79% 1009.8 hPa 16.1 km North 27.8 km/h / 7.7 m/s 42.6 km/h / 11.8 m/s N/A Snow Light Snow
7:55 AM -10.2 °C -19.1 °C -12.9 °C 81% 1009.8 hPa 16.1 km North 25.9 km/h / 7.2 m/s - 0.0 mm Snow Light Snow
8:01 AM -10.0 °C -18.9 °C -13.0 °C 79% 1009.9 hPa 16.1 km North 25.9 km/h / 7.2 m/s - N/A Snow Light Snow
8:18 AM -11.0 °C -21.0 °C -14.0 °C 79% 1011.0 hPa 9.7 km North 31.5 km/h / 8.7 m/s - N/A Snow Light Snow
8:24 AM -11.0 °C -20.2 °C -14.0 °C 79% 1011.1 hPa 6.4 km North 25.9 km/h / 7.2 m/s 37.0 km/h / 10.3 m/s N/A Snow Light Snow
8:46 AM -12.0 °C -23.0 °C -15.0 °C 79% 1011.8 hPa 16.1 km NNW 37.0 km/h / 10.3 m/s 44.4 km/h / 12.3 m/s N/A Snow Light Snow
8:49 AM -12.0 °C -22.8 °C -16.0 °C 73% 1011.7 hPa 16.1 km NNW 35.2 km/h / 9.8 m/s 44.4 km/h / 12.3 m/s N/A Snow Light Snow
8:53 AM -12.0 °C -22.8 °C -16.0 °C 73% 1011.7 hPa 16.1 km NNW 35.2 km/h / 9.8 m/s 44.4 km/h / 12.3 m/s N/A   Mostly Cloudy
8:55 AM -11.9 °C -22.2 °C -15.6 °C 75% 1011.7 hPa 16.1 km North 31.5 km/h / 8.7 m/s 44.4 km/h / 12.3 m/s 0.0 mm   Overcast
8:56 AM -12.0 °C -22.6 °C -16.0 °C 73% 1011.8 hPa 16.1 km NNW 33.3 km/h / 9.3 m/s 44.4 km/h / 12.3 m/s N/A   Mostly Cloudy
9:08 AM -12.0 °C -22.8 °C -17.0 °C 67% 1012.3 hPa 16.1 km NNW 35.2 km/h / 9.8 m/s 50.0 km/h / 13.9 m/s N/A   Mostly Cloudy
9:26 AM -13.0 °C -24.1 °C -17.0 °C 73% 1012.9 hPa 16.1 km NNW 35.2 km/h / 9.8 m/s 50.0 km/h / 13.9 m/s N/A   Mostly Cloudy
9:31 AM -13.0 °C -24.1 °C -17.0 °C 73% 1013.2 hPa 16.1 km NNW 35.2 km/h / 9.8 m/s 50.0 km/h / 13.9 m/s N/A   Overcast
9:33 AM -13.0 °C -24.6 °C -17.0 °C 73% 1013.3 hPa 16.1 km NNW 38.9 km/h / 10.8 m/s 50.0 km/h / 13.9 m/s N/A   Overcast
9:38 AM -13.0 °C -24.6 °C -17.0 °C 73% 1013.6 hPa 16.1 km NNW 38.9 km/h / 10.8 m/s 55.6 km/h / 15.4 m/s N/A   Light Freezing Rain
9:39 AM -13.0 °C -25.2 °C -17.0 °C 73% 1013.6 hPa 16.1 km NNW 44.4 km/h / 12.3 m/s 55.6 km/h / 15.4 m/s N/A   Light Freezing Rain
9:43 AM -13.0 °C -24.6 °C -17.0 °C 73% 1013.6 hPa 16.1 km NNW 38.9 km/h / 10.8 m/s 55.6 km/h / 15.4 m/s N/A   Overcast
9:54 AM -13.0 °C -23.6 °C -18.0 °C 67% 1013.8 hPa 16.1 km NNW 31.5 km/h / 8.7 m/s 50.0 km/h / 13.9 m/s N/A   Light Freezing Rain
9:55 AM -13.0 °C -23.9 °C -17.5 °C 70% 1013.7 hPa 16.1 km NNW 33.3 km/h / 9.3 m/s 50.0 km/h / 13.9 m/s 0.0 mm   Overcast
9:57 AM -13.0 °C -23.9 °C -18.0 °C 67% 1014.1 hPa 16.1 km NNW 33.3 km/h / 9.3 m/s 44.4 km/h / 12.3 m/s N/A   Overcast
10:04 AM -13.0 °C -25.0 °C -18.0 °C 67% 1014.1 hPa 16.1 km NNW 42.6 km/h / 11.8 m/s 53.7 km/h / 14.9 m/s N/A Snow Light Snow
10:05 AM -13.0 °C -25.0 °C -18.0 °C 67% 1014.2 hPa 16.1 km NNW 42.6 km/h / 11.8 m/s 53.7 km/h / 14.9 m/s N/A   Overcast
10:09 AM -13.0 °C -24.6 °C -18.0 °C 67% 1014.4 hPa 16.1 km NNW 38.9 km/h / 10.8 m/s 53.7 km/h / 14.9 m/s N/A Snow Light Snow
10:12 AM -13.0 °C -24.6 °C -18.0 °C 67% 1014.6 hPa 14.5 km NNW 38.9 km/h / 10.8 m/s 53.7 km/h / 14.9 m/s N/A   Overcast
10:39 AM -13.0 °C -24.6 °C -18.0 °C 67% 1015.5 hPa 14.5 km North 38.9 km/h / 10.8 m/s 59.3 km/h / 16.5 m/s N/A   Light Freezing Rain
10:43 AM -14.0 °C -24.9 °C -18.0 °C 72% 1015.4 hPa 16.1 km North 31.5 km/h / 8.7 m/s 55.6 km/h / 15.4 m/s N/A   Overcast
10:55 AM -13.7 °C -25.3 °C -18.4 °C 68% 1015.7 hPa 16.1 km North 37.0 km/h / 10.3 m/s 46.3 km/h / 12.9 m/s 0.0 mm   Overcast
11:08 AM -14.0 °C -24.6 °C -18.0 °C 72% 1016.1 hPa 16.1 km North 29.6 km/h / 8.2 m/s 40.7 km/h / 11.3 m/s N/A   Overcast
11:10 AM -13.0 °C -23.6 °C -18.0 °C 67% 1016.1 hPa 16.1 km North 31.5 km/h / 8.7 m/s 40.7 km/h / 11.3 m/s N/A   Overcast
11:21 AM -14.0 °C -24.6 °C -18.0 °C 72% 1016.2 hPa 16.1 km North 29.6 km/h / 8.2 m/s 40.7 km/h / 11.3 m/s N/A   Overcast
11:27 AM -14.0 °C -25.9 °C -18.0 °C 72% 1016.2 hPa 16.1 km North 38.9 km/h / 10.8 m/s 46.3 km/h / 12.9 m/s N/A   Overcast
11:28 AM -14.0 °C -25.5 °C -18.0 °C 72% 1016.2 hPa 16.1 km North 35.2 km/h / 9.8 m/s 46.3 km/h / 12.9 m/s N/A   Light Freezing Rain
11:30 AM -14.0 °C -25.2 °C -18.0 °C 72% 1016.3 hPa 14.5 km North 33.3 km/h / 9.3 m/s 46.3 km/h / 12.9 m/s N/A   Overcast
11:35 AM -14.0 °C -25.5 °C -18.0 °C 72% 1016.3 hPa 9.7 km NNW 35.2 km/h / 9.8 m/s 46.3 km/h / 12.9 m/s N/A Snow Blowing Snow
11:39 AM -14.0 °C -26.2 °C -18.0 °C 72% 1016.3 hPa 8.0 km North 40.7 km/h / 11.3 m/s 50.0 km/h / 13.9 m/s N/A Snow Blowing Snow
11:53 AM -14.0 °C -25.7 °C -19.0 °C 67% 1016.6 hPa 12.9 km NNW 37.0 km/h / 10.3 m/s 55.6 km/h / 15.4 m/s N/A Snow Blowing Snow
11:55 AM -14.1 °C -26.1 °C -18.7 °C 69% 1016.6 hPa 12.9 km NNW 38.9 km/h / 10.8 m/s 55.6 km/h / 15.4 m/s 0.0 mm Snow Blowing Snow
12:02 PM -14.0 °C -25.9 °C -19.0 °C 67% 1016.8 hPa 9.7 km NNW 38.9 km/h / 10.8 m/s 50.0 km/h / 13.9 m/s N/A Snow Blowing Snow
12:06 PM -14.0 °C -25.2 °C -19.0 °C 67% 1017.0 hPa 6.4 km NNW 33.3 km/h / 9.3 m/s 48.2 km/h / 13.4 m/s N/A Snow Light Snow
12:10 PM -15.0 °C -28.2 °C -19.0 °C 72% 1017.0 hPa 6.4 km North 46.3 km/h / 12.9 m/s 59.3 km/h / 16.5 m/s N/A Snow Light Snow
12:12 PM -15.0 °C -28.5 °C -19.0 °C 72% 1017.0 hPa 4.8 km NNW 50.0 km/h / 13.9 m/s 64.8 km/h / 18.0 m/s N/A Snow Light Snow
12:23 PM -15.0 °C -28.4 °C -21.0 °C 61% 1017.4 hPa 9.7 km NNW 48.2 km/h / 13.4 m/s 61.1 km/h / 17.0 m/s N/A   Light Freezing Rain
12:25 PM -16.0 °C -29.7 °C -21.0 °C 66% 1017.2 hPa 9.7 km North 48.2 km/h / 13.4 m/s 70.4 km/h / 19.5 m/s N/A   Light Freezing Rain
12:30 PM -16.0 °C -29.7 °C -21.0 °C 66% 1017.5 hPa 6.4 km North 48.2 km/h / 13.4 m/s 70.4 km/h / 19.5 m/s N/A   Light Freezing Rain
12:31 PM -16.0 °C -30.1 °C -21.0 °C 66% 1017.5 hPa 6.4 km North 51.9 km/h / 14.4 m/s 70.4 km/h / 19.5 m/s N/A   Light Freezing Rain
12:36 PM -16.0 °C -29.5 °C -21.0 °C 66% 1017.7 hPa 6.4 km North 46.3 km/h / 12.9 m/s 63.0 km/h / 17.5 m/s N/A   Light Freezing Rain
12:46 PM -16.0 °C -28.8 °C -22.0 °C 61% 1018.2 hPa 12.9 km North 40.7 km/h / 11.3 m/s 61.1 km/h / 17.0 m/s N/A   Light Freezing Rain
12:50 PM -16.0 °C -28.6 °C -22.0 °C 61% 1018.3 hPa 14.5 km North 38.9 km/h / 10.8 m/s 61.1 km/h / 17.0 m/s N/A   Light Freezing Rain
12:51 PM -16.0 °C -28.4 °C -21.0 °C 66% 1018.4 hPa 16.1 km North 37.0 km/h / 10.3 m/s 53.7 km/h / 14.9 m/s N/A   Overcast
12:55 PM -16.0 °C -28.8 °C -21.0 °C 66% 1018.4 hPa 16.1 km NNW 40.7 km/h / 11.3 m/s 53.7 km/h / 14.9 m/s N/A   Overcast
12:56 PM -16.0 °C -28.8 °C -21.0 °C 66% 1018.5 hPa 16.1 km NNW 40.7 km/h / 11.3 m/s 53.7 km/h / 14.9 m/s N/A   Overcast
12:58 PM -16.0 °C -29.7 °C -21.0 °C 66% 1018.6 hPa 12.9 km NNW 48.2 km/h / 13.4 m/s 64.8 km/h / 18.0 m/s N/A   Light Freezing Rain
1:10 PM -17.0 °C -30.6 °C -22.0 °C 66% 1018.8 hPa 16.1 km NNW 44.4 km/h / 12.3 m/s 59.3 km/h / 16.5 m/s N/A   Overcast
1:55 PM -17.1 °C -29.8 °C -22.1 °C 66% 1019.7 hPa 16.1 km NNW 37.0 km/h / 10.3 m/s 55.6 km/h / 15.4 m/s 0.0 mm   Overcast
2:03 PM -17.0 °C -30.6 °C -22.0 °C 66% 1020.1 hPa 16.1 km NNW 44.4 km/h / 12.3 m/s 57.4 km/h / 15.9 m/s N/A   Overcast
2:16 PM -17.0 °C -30.4 °C -22.0 °C 66% 1020.3 hPa 14.5 km NNW 42.6 km/h / 11.8 m/s 55.6 km/h / 15.4 m/s N/A Snow Light Snow
2:25 PM -17.0 °C -30.2 °C -22.0 °C 66% 1020.5 hPa 11.3 km NNW 40.7 km/h / 11.3 m/s 61.1 km/h / 17.0 m/s N/A Snow Light Snow
2:55 PM -17.1 °C -29.6 °C -20.9 °C 73% 1021.4 hPa 8.0 km NNW 35.2 km/h / 9.8 m/s 46.3 km/h / 12.9 m/s 0.0 mm Snow Light Snow
2:58 PM -17.0 °C -29.7 °C -21.0 °C 72% 1021.6 hPa 14.5 km NNW 37.0 km/h / 10.3 m/s 46.3 km/h / 12.9 m/s N/A   Overcast
3:05 PM -17.0 °C -29.4 °C -21.0 °C 72% 1021.8 hPa 16.1 km NNW 35.2 km/h / 9.8 m/s 46.3 km/h / 12.9 m/s N/A   Overcast
3:30 PM -17.0 °C -28.6 °C -21.0 °C 72% 1022.5 hPa 14.5 km NNW 29.6 km/h / 8.2 m/s 42.6 km/h / 11.8 m/s N/A   Overcast
3:31 PM -17.0 °C -28.6 °C -21.0 °C 72% 1022.6 hPa 12.9 km NNW 29.6 km/h / 8.2 m/s 42.6 km/h / 11.8 m/s N/A Snow Light Snow
3:41 PM -17.0 °C -29.4 °C -21.0 °C 72% 1023.0 hPa 9.7 km North 35.2 km/h / 9.8 m/s 48.2 km/h / 13.4 m/s N/A   Light Freezing Rain
3:47 PM -17.0 °C -28.9 °C -21.0 °C 72% 1023.1 hPa 12.9 km NNW 31.5 km/h / 8.7 m/s 42.6 km/h / 11.8 m/s N/A Snow Light Snow
3:55 PM -17.1 °C -29.8 °C -20.5 °C 75% 1023.3 hPa 8.0 km NNW 37.0 km/h / 10.3 m/s 46.3 km/h / 12.9 m/s 0.0 mm Snow Light Snow
4:03 PM -17.0 °C -29.1 °C -21.0 °C 72% 1023.6 hPa 16.1 km NNW 33.3 km/h / 9.3 m/s 50.0 km/h / 13.9 m/s N/A   Overcast
4:06 PM -17.0 °C -28.6 °C -21.0 °C 72% 1023.7 hPa 12.9 km NNW 29.6 km/h / 8.2 m/s 50.0 km/h / 13.9 m/s N/A Snow Light Snow
4:26 PM -17.0 °C -30.2 °C -21.0 °C 72% 1024.3 hPa 12.9 km NNW 40.7 km/h / 11.3 m/s 53.7 km/h / 14.9 m/s N/A   Overcast
4:55 PM -18.0 °C -31.8 °C -22.3 °C 70% 1025.2 hPa 16.1 km NNW 42.6 km/h / 11.8 m/s 53.7 km/h / 14.9 m/s 0.0 mm   Overcast
5:16 PM -19.0 °C -32.1 °C -23.0 °C 71% 1025.5 hPa 16.1 km NNW 35.2 km/h / 9.8 m/s 46.3 km/h / 12.9 m/s N/A   Overcast
5:49 PM -19.0 °C -30.5 °C -23.0 °C 71% 1026.3 hPa 16.1 km NNW 25.9 km/h / 7.2 m/s 38.9 km/h / 10.8 m/s N/A   Overcast
5:55 PM -18.8 °C -30.9 °C -23.5 °C 67% 1026.2 hPa 16.1 km NNW 29.6 km/h / 8.2 m/s 38.9 km/h / 10.8 m/s N/A   Overcast
6:12 PM -19.0 °C -32.1 °C -24.0 °C 66% 1026.2 hPa 16.1 km North 35.2 km/h / 9.8 m/s 46.3 km/h / 12.9 m/s N/A   Scattered Clouds
6:55 PM -19.4 °C -30.6 °C -24.1 °C 67% 1026.7 hPa 16.1 km NNW 24.1 km/h / 6.7 m/s - N/A   Clear
7:55 PM -19.8 °C -29.8 °C -24.5 °C 67% 1027.6 hPa 16.1 km North 18.5 km/h / 5.1 m/s - N/A   Clear
8:55 PM -20.4 °C -29.5 °C -25.1 °C 67% 1027.9 hPa 16.1 km NNW 14.8 km/h / 4.1 m/s - N/A   Clear
9:55 PM -21.3 °C -29.9 °C -25.7 °C 69% 1028.0 hPa 16.1 km NNW 13.0 km/h / 3.6 m/s - N/A   Clear
10:55 PM -21.5 °C -29.5 °C -25.8 °C 69% 1028.4 hPa 16.1 km NW 11.1 km/h / 3.1 m/s - N/A   Clear
11:55 PM -21.4 °C -29.3 °C -25.8 °C 69% 1028.5 hPa 16.1 km NW 11.1 km/h / 3.1 m/s - N/A   Clear